Weather in Uralskoye

Russia / Orenburg Oblast     52°11′37″N   58°54′52″E
temp.,
°C
wind,
m/s
gust,
m/s
humid.,
%
clouds,
%
prec.,
mm/h
press.,
hPa
HPBL,
m
1 march, mon
mon123:00−11n239693 0.3 100825
02:00−13n339590 0.1 101036
05:00−15n239692 0.1 101229
08:00−15nne129698 0.2 101421
11:00−13n119289 0.3 1016120
14:00−11sw128886 0.0 1016321
17:00−10ssw239393 0.1 1017297
20:00−12ssw349676 0.1 101871
2 march, tue
tue223:00−13wsw469484 0.1 1019152
02:00−16wsw459368 0.0 101885
05:00−15wsw5109080 0.0 1018222
08:00−20wsw59945 0.0 1018143
11:00−17wsw610903 0.0 1018318
14:00−14sw698820 0.0 1016433
17:00−13sw7118944 0.0 1014483
20:00−13sw71392100 0.3 1013523
3 march, wed
wed323:00−12sw61490100 0.4 1011587
02:00−8sw81590100 0.0 1008710
05:00−6sw81589100 0.1 1006791
08:00−5sw71491100 0.1 1005725
11:00−3sw81389100 0.1 1005895
14:00−1sw71187100 0.1 1004956
17:00−2sw71195100 0.4 1003737
20:00−3ssw5996100 0.3 1003344
4 march, thu
thu423:00−4sw4797100 0.8 1003201
02:00−4wnw3597100 0.8 1002143
05:00−8wnw4689100 0.9 1004118
08:00−13w479150 0.0 100596
11:00−9w5108830 0.0 1007412
14:00−6w6108240 0.0 1008831
17:00−7w5108542 0.0 1010411
20:00−12sw510900 0.0 1012174
5 march, fri
fri523:00−11sw6139129 0.0 1013484
02:00−9sw71688100 0.0 1011629
05:00−6sw91787100 0.0 1009868
08:00−4sw101887100 0.0 1008938
11:00−2sw122085100 0.1 10071242
14:00−1sw121985100 0.1 10081257
17:00−1wsw101687100 0.1 10101136
20:00−3sw8158999 0.0 1012643